Weather in Levice

Slovakia     48°12′52″N   18°36′19″E
temp.,
°C
wind,
m/s
gust,
m/s
humid.,
%
clouds,
%
prec.,
mm/h
press.,
hPa
HPBL,
m
18 may, wed
wed1823:00+13wnw11919 0.1 101924
02:00+10nnw22925 0.1 102123
05:00+9n33900 0.0 102234
08:00+13n36752 0.0 1025373
11:00+17ese24392 0.0 10261730
14:00+18se33490 0.0 10271277
17:00+18sse22460 0.0 10271141
20:00+12se11580 0.0 102710
19 may, thu
thu1923:00+9nne00570 0.0 102910
02:00+8ene11625 0.0 103010
05:00+6ene22675 0.0 103010
08:00+12ese22620 0.0 1030217
11:00+17s34515 0.0 1030890
14:00+20s45435 0.0 10281282
17:00+20ssw35497 0.0 10261127
20:00+15se226512 0.0 102611
20 may, fri
fri2023:00+11e227491 0.0 102713
02:00+10ene2272100 0.0 102617
05:00+10e2270100 0.0 102620
08:00+14ese2265100 0.0 1026176
11:00+18sse225694 0.0 1025568
14:00+21wsw225620 0.0 1024808
17:00+23wsw12585 0.0 1021748
20:00+19e00745 0.0 102011
21 may, sat
sat2123:00+16ene1185100 0.0 101911
02:00+15e2289100 0.0 101711
05:00+14e2291100 0.0 101521
08:00+18ssw1278100 0.1 1015250
11:00+22nw61272100 0.3 10161205
14:00+23nw919493 0.4 10151911
17:00+20nw8145489 0.0 10161513
20:00+16nw4116611 0.0 1016204
22 may, sun
sun2223:00+13nw4106611 0.0 1017250
02:00+11wnw4117249 0.0 1017274
05:00+10nw41176100 0.0 1017349
08:00+13nw711715 0.0 1017813
11:00+17nw8105418 0.0 10161801
14:00+17nnw7115488 0.0 10161942
17:00+17nnw69568 0.0 10151880
20:00+12nnw477514 0.0 1016158